Knox, IN

4:28 PM CDT on August 29, 2016 (GMT -0500)
Starke County

Weather History for KOXI - November, 2011

Change the Weather History Date:

Friday, November 18, 2011

  Actual Average (KVPZ) Record (KVPZ)
Temperature  
Mean Temperature 36 °F 40 °F  
Max Temperature 48 °F 47 °F 69 °F (1999)
Min Temperature 24 °F 32 °F 10 °F (2014)
Degree Days  
Heating Degree Days 29 25  
Month to date heating degree days 385  
Since 1 July heating degree days 915  
Cooling Degree Days 0 0  
Month to date cooling degree days 0  
Year to date cooling degree days 713  
Moisture  
Dew Point 16 °F    
Average Humidity 44    
Maximum Humidity 71    
Minimum Humidity 26    
Precipitation  
Precipitation 0.00 in 0.11 in 1.21 in (2003)
Month to date precipitation 2.14  
Year to date precipitation 34.14  
Sea Level Pressure  
Sea Level Pressure 30.12 in    
Wind  
Wind Speed 14 mph (South)    
Max Wind Speed 29 mph    
Max Gust Speed 38 mph    
Visibility 10 miles    
Events      
T = Trace of Precipitation, MM = Missing Value Source: NWS Daily Summary

Daily Weather History Graph

Daily Weather History Graph

Search for Another Location

Airport or City:

Trip Planner

Search our weather history database for the weather conditions in past years. The results will help you decide how hot, cold, wet, or windy it might be!

Date:

Astronomy

Nov. 18, 2011 Rise Set
Actual Time 6:38 AM CST 4:24 PM CST
Civil Twilight 6:08 AM CST 4:54 PM CST
Nautical Twilight 5:34 AM CST 5:28 PM CST
Astronomical Twilight 5:01 AM CST 6:01 PM CST
Moon 11:55 PM CST (11/18) 12:15 PM CST (11/18)
Length of Visible Light 10h 46m
Length of Day
9h 46m
Waning Gibbous, 49% of the Moon is Illuminated
Nov 18
Waning Gibbous
Nov 25
New
Dec 2
First Quarter
Dec 10
Full
Dec 17
Last Quarter

Hourly Weather History & Observations

Time (CST) Temp. Windchill Dew Point Humidity Pressure Visibility Wind Dir Wind Speed Gust Speed Precip Events Conditions
12:15 AM 24.4 °F 20.1 °F 16.0 °F 70% 30.23 in 10.0 mi South 3.5 mph - N/A   Clear
12:35 AM 24.4 °F 16.5 °F 16.3 °F 71% 30.23 in 10.0 mi South 6.9 mph - N/A   Clear
12:55 AM 25.0 °F 17.1 °F 16.7 °F 71% 30.23 in 10.0 mi South 6.9 mph - N/A   Clear
1:15 AM 25.5 °F 17.8 °F 16.9 °F 70% 30.23 in 10.0 mi South 6.9 mph - N/A   Clear
1:35 AM 26.6 °F 16.8 °F 17.2 °F 68% 30.23 in 10.0 mi SSW 10.4 mph - N/A   Clear
1:55 AM 28.4 °F 19.7 °F 17.2 °F 63% 30.24 in 10.0 mi South 9.2 mph - N/A   Clear
2:15 AM 28.0 °F 18.1 °F 17.6 °F 65% 30.24 in 10.0 mi SSW 11.5 mph - N/A   Clear
2:35 AM 28.4 °F 19.1 °F 17.4 °F 63% 30.24 in 10.0 mi SSW 10.4 mph - N/A   Clear
2:55 AM 27.7 °F 17.6 °F 17.6 °F 66% 30.24 in 10.0 mi South 11.5 mph 16.1 mph N/A   Clear
3:15 AM 27.3 °F 17.7 °F 17.6 °F 67% 30.23 in 10.0 mi South 10.4 mph - N/A   Clear
3:35 AM 27.3 °F 17.7 °F 17.6 °F 67% 30.23 in 10.0 mi SSW 10.4 mph - N/A   Clear
3:55 AM 27.7 °F 18.2 °F 17.6 °F 66% 30.24 in 10.0 mi South 10.4 mph - N/A   Clear
4:15 AM 27.9 °F 18.4 °F 17.6 °F 65% 30.24 in 10.0 mi South 10.4 mph - N/A   Clear
4:35 AM 28.0 °F 18.6 °F 17.4 °F 64% 30.23 in 10.0 mi South 10.4 mph - N/A   Clear
4:55 AM 28.2 °F 18.3 °F 17.2 °F 63% 30.23 in 10.0 mi South 11.5 mph - N/A   Clear
5:35 AM 28.9 °F 18.6 °F 16.7 °F 60% 30.22 in 10.0 mi South 12.7 mph - N/A   Clear
5:55 AM 29.1 °F 18.9 °F 16.5 °F 59% 30.22 in 10.0 mi South 12.7 mph - N/A   Clear
6:15 AM 29.7 °F 19.1 °F 16.3 °F 58% 30.22 in 10.0 mi South 13.8 mph 20.7 mph N/A   Clear
6:35 AM 30.4 °F 19.1 °F 16.0 °F 55% 30.22 in 10.0 mi SSW 16.1 mph - N/A   Clear
6:55 AM 30.9 °F 19.4 °F 15.8 °F 54% 30.22 in 10.0 mi South 17.3 mph - N/A   Clear
7:35 AM 32.4 °F 20.9 °F 16.0 °F 51% 30.22 in 10.0 mi SSW 18.4 mph - N/A   Clear
7:55 AM 33.8 °F 23.2 °F 15.8 °F 48% 30.22 in 10.0 mi SSW 17.3 mph 28.8 mph N/A   Clear
8:15 AM 35.4 °F 23.7 °F 15.6 °F 44% 30.22 in 10.0 mi SSW 23.0 mph 31.1 mph N/A   Clear
8:35 AM 36.9 °F 25.6 °F 15.6 °F 42% 30.21 in 10.0 mi SSW 23.0 mph 28.8 mph N/A   Clear
8:55 AM 37.9 °F 27.9 °F 16.5 °F 42% 30.21 in 10.0 mi SSW 19.6 mph 29.9 mph N/A   Clear
9:35 AM 39.6 °F 30.0 °F 16.9 °F 40% 30.21 in 10.0 mi SSW 19.6 mph 29.9 mph N/A   Clear
9:55 AM 40.6 °F 30.7 °F 17.6 °F 39% 30.20 in 10.0 mi SSW 23.0 mph 31.1 mph N/A   Clear
10:15 AM 41.5 °F 31.9 °F 18.1 °F 39% 30.20 in 10.0 mi SSW 23.0 mph 29.9 mph N/A   Clear
10:35 AM 42.8 °F 33.5 °F 18.1 °F 37% 30.18 in 10.0 mi SSW 23.0 mph 31.1 mph N/A   Clear
10:55 AM 43.7 °F 34.1 °F 18.0 °F 36% 30.17 in 10.0 mi SSW 26.5 mph 31.1 mph N/A   Clear
11:15 AM 44.2 °F 35.0 °F 17.4 °F 34% 30.15 in 10.0 mi SSW 25.3 mph 35.7 mph N/A   Clear
11:35 AM 45.0 °F 36.0 °F 16.9 °F 32% 30.13 in 10.0 mi South 25.3 mph 34.5 mph N/A   Clear
11:55 AM 46.0 °F 37.0 °F 16.5 °F 31% 30.11 in 10.0 mi South 27.6 mph 38.0 mph N/A   Clear
12:15 PM 46.8 °F - 16.2 °F 29% 30.10 in 10.0 mi SSW 27.6 mph 36.8 mph N/A   Clear
12:35 PM 47.7 °F - 15.6 °F 28% 30.08 in 10.0 mi SSW 27.6 mph 35.7 mph N/A   Clear
12:55 PM 48.2 °F - 14.5 °F 26% 30.06 in 10.0 mi SSW 28.8 mph 36.8 mph N/A   Clear
1:35 PM 48.0 °F - 14.0 °F 26% 30.04 in 10.0 mi South 21.9 mph 27.6 mph N/A   Mostly Cloudy
1:55 PM 47.5 °F - 14.5 °F 27% 30.03 in 10.0 mi South 25.3 mph 29.9 mph N/A   Overcast
2:15 PM 48.6 °F - 14.5 °F 26% 30.02 in 10.0 mi South 25.3 mph 33.4 mph N/A   Mostly Cloudy
2:35 PM 48.7 °F - 14.5 °F 26% 30.01 in 10.0 mi South 25.3 mph 31.1 mph N/A   Scattered Clouds
2:55 PM 48.4 °F - 14.7 °F 26% 30.01 in 10.0 mi South 24.2 mph 28.8 mph N/A   Clear
3:15 PM 48.6 °F - 15.1 °F 26% 30.00 in 10.0 mi South 23.0 mph 32.2 mph N/A   Scattered Clouds
3:55 PM 46.8 °F - 15.6 °F 29% 30.00 in 10.0 mi South 21.9 mph 25.3 mph N/A   Scattered Clouds
4:15 PM 46.4 °F 38.7 °F 15.8 °F 29% 29.99 in 10.0 mi South 20.7 mph 27.6 mph N/A   Scattered Clouds
4:35 PM 45.7 °F 37.8 °F 15.6 °F 30% 29.98 in 10.0 mi South 20.7 mph 25.3 mph N/A   Scattered Clouds
4:55 PM 45.3 °F 37.1 °F 15.4 °F 30% 29.97 in 10.0 mi South 21.9 mph 25.3 mph N/A   Scattered Clouds
5:15 PM 45.0 °F 37.1 °F 15.6 °F 31% 29.97 in 10.0 mi South 19.6 mph 25.3 mph N/A   Scattered Clouds
5:55 PM 44.4 °F 35.9 °F 15.4 °F 31% 29.97 in 10.0 mi South 21.9 mph 26.5 mph N/A   Mostly Cloudy
6:15 PM 45.0 °F 36.9 °F 16.2 °F 32% 29.96 in 10.0 mi South 20.7 mph 26.5 mph N/A   Overcast
6:35 PM 45.1 °F 36.9 °F 16.7 °F 32% 29.96 in 10.0 mi South 21.9 mph 31.1 mph N/A   Overcast
6:55 PM 45.0 °F 37.1 °F 17.1 °F 33% 29.96 in 10.0 mi South 19.6 mph 28.8 mph N/A   Overcast
7:15 PM 45.0 °F 37.1 °F 17.4 °F 33% 29.96 in 10.0 mi South 19.6 mph 26.5 mph N/A   Mostly Cloudy
7:55 PM 45.1 °F 38.1 °F 17.8 °F 34% 29.96 in 10.0 mi South 16.1 mph 26.5 mph N/A   Overcast
8:15 PM 45.1 °F 37.1 °F 18.0 °F 34% 29.96 in 10.0 mi South 20.7 mph 25.3 mph N/A   Overcast
8:35 PM 45.7 °F 38.8 °F 17.6 °F 33% 29.96 in 10.0 mi South 16.1 mph 24.2 mph N/A   Overcast
8:55 PM 45.5 °F 38.6 °F 17.8 °F 33% 29.97 in 10.0 mi SSW 16.1 mph 23.0 mph N/A   Mostly Cloudy
9:15 PM 45.5 °F 38.6 °F 18.0 °F 33% 29.97 in 10.0 mi South 16.1 mph 23.0 mph N/A   Mostly Cloudy
9:55 PM 45.5 °F 39.2 °F 18.1 °F 34% 29.98 in 10.0 mi SSW 13.8 mph 21.9 mph N/A   Overcast
10:15 PM 45.0 °F 38.5 °F 18.1 °F 34% 29.98 in 10.0 mi SSW 13.8 mph 20.7 mph N/A   Overcast
10:35 PM 45.0 °F 40.1 °F 18.1 °F 34% 29.98 in 10.0 mi SSW 9.2 mph - N/A   Overcast
10:55 PM 45.3 °F 40.1 °F 18.3 °F 34% 29.98 in 10.0 mi SW 10.4 mph - N/A   Overcast
11:35 PM 44.8 °F 39.0 °F 19.2 °F 36% 30.00 in 10.0 mi SW 11.5 mph - N/A   Overcast
11:55 PM 44.4 °F 39.0 °F 19.9 °F 38% 30.00 in 10.0 mi SSW 10.4 mph - N/A   Overcast